STARLINK-5082, 54845

Orbit data source: Space-Track

STARLINK-5082, 54845 is a payload satellite owned by SpaceX/Seattle (US) in LEO that was launched on Wed, 28 Dec 2022 UTC via an FALCON 9 launch vehicle from the Air Force Eastern Test Range (AFETR). Payload-class satellites include a variety of spacecraft equipped with specific instruments for various scientific and technological missions. These include communications satellites like Starlink; space stations such as the ISS; scientific satellites like the Hubble; Earth observation satellites from companies like Planet Labs, Umbra, and HawkEye 360; GPS; miniature CubeSats for education and research; and military/defense satellites.

Loading next visibility...
Identifier
54845, 2022-177AB
Orbit
LEO
Country
Flag of USUS
Related business
Manufacturer
SpaceX/Seattle
Mission
Operational Commercial Communications
Bus & Motor
STARLINK, Unknown motor
Mass
305 kg wet, ~290 kg dry
Launch date (UTC)
2022-12-28 (3 years ago)
Launch vehicle
FALCON 9
Launch site
Air Force Eastern Test Range (AFETR)
Object type
Payload
Rocket body
Debris
Shape & HBR
Box + 1 Pan, 10.1 m
Radar Cross Section
13.562 m², Large (>1 m²)

Expand to show TLE details & history
Last TLE update: 3 days ago

TLE from 3 days ago
0 STARLINK-5082
1 54845U 22177AB  26170.76518263  .00001090  00000-0  49128-4 0  9997
2 54845  43.0010 276.2541 0001596 269.5195  90.5474 15.27579916192576
Epoch: 2026-06-19T18:21Z
TLE epoch observation values (Epoch: 2026-06-19T18:21:51.779Z)
Latitude
0.00001°
Longitude
92.7989°
Altitude
482.836 km
Speed
7.626 km/s
True Right ascension
18h 25m 00s
True Declination
0° 00' 00"
Sunlit
Object was in full shadow at epoch
Visualization orbit readout
Latitude
Unknown
Longitude
Unknown
Altitude
Unknown
Speed
Unknown
Apparent Right ascension
Unknown
Apparent Declination
Unknown
Sunlit
N/A
Visualization observer readout
Local Sidereal Time
23:18:51
Azimuth
Unknown
Elevation
Unknown
Doppler factor
Unknown
Orbital elements
Apogee altitude
486.09 km
Perigee altitude
483.899 km
Semi-major axis
6,863.131 km
Eccentricity
0.00016
Inclination
43.001°
RAAN
276.2541°
Arg. of periapsis
269.5195°
True anomaly
90.56569°
Mean anomaly
90.5474°
Eccentric anomaly
90.55654°
Mean motion
3.81733 °/min
Orbital period
94.31 mins
BSTAR
0.000049128
Loading maneuver chart data...
Computing Atmospheric mass density...
Loading historical data...
Loading historical data...
Loading historical data...
Loading historical data...
Loading historical data...
Loading historical data...
Loading historical data...

Documentation

Showing up to 5 results
|